Location: Camoruquito
(9.9001°N, 67.3564°W)
Time: 14:36:16
(UTC+00:00)

Cosmos 1707 - Pass Details

Date: 14 April 2024
Orbit: 475 x 487 km, 82.5° (Epoch: 27 May)

Event Time Altitude Azimuth Distance (km) Brightness Sun altitude
Rises 20:51:36 0° 352° (N) 2,554 6.4 25.6°
Reaches altitude 10° 20:53:43 10° 350° (N) 1,672 5.6 25.1°
Drops below altitude 10° 21:00:59 10° 182° (S) 1,666 5.3 23.3°
Enters shadow 21:27:04 -55° 170° (S) 10,983 9.2 16.9°
Exits shadow 21:48:32 -80° 39° (NE) 13,046 9.6 11.7°
Maximum altitude 08:50:02 64° 94° (E) 533 2.9 -22.3°
